DELTA 1 DEB (YO), 228

Orbit data source: Space-Track

DELTA 1 DEB (YO), 228 is space debris in LEO originally from a launch on Thu, 08 Feb 1962 UTC launched from the Air Force Eastern Test Range (AFETR). Debris objects in space refer to the collection of defunct objects orbiting the Earth. Examples of debris include non-operational satellites, rocket bodies, and fragments generated from explosions, collisions, or faulty payload assembly.

Loading next visibility...
Identifier
228, 1962-002C
Orbit
LEO
Country
Flag of USUS
Related business
Manufacturer
RCA/East Windsor
Mission
Spacecraft
Bus & Motor
Unknown
Mass
~1 kg wet, ~1 kg dry
Launch date (UTC)
1962-02-08 (64 years ago)
Launch vehicle
Unknown
Launch site
Air Force Eastern Test Range (AFETR)
Object type
Payload
Rocket body
Debris
Shape & HBR
Unknown shape, 0.1 m
Radar Cross Section
Small (<0.1 m²)

Expand to show TLE details & history
Last TLE update: 2 days ago

TLE from 2 days ago
0 DELTA 1 DEB (YO)
1 00228U 62002C   25309.03441494  .00027793  00000-0  75019-3 0  9993
2 00228  48.4337  56.0968 0006186 182.5155 177.5753 15.37448853408448
Epoch: 2025-11-05T00:49Z
TLE epoch observation values (Epoch: 2025-11-05T00:49:33.450Z)
Latitude
-0.00006°
Longitude
-0.8055°
Altitude
458.262 km
Speed
7.637 km/s
True Right ascension
03h 44m 23s
True Declination
0° 00' 00"
Sunlit
Object was in full shadow at epoch
Visualization orbit readout
Latitude
Unknown
Longitude
Unknown
Altitude
Unknown
Speed
Unknown
Apparent Right ascension
Unknown
Apparent Declination
Unknown
Sunlit
N/A
Visualization observer readout
Local Sidereal Time
08:07:22
Azimuth
Unknown
Elevation
Unknown
Doppler factor
Unknown
Orbital elements
Apogee altitude
458.921 km
Perigee altitude
450.467 km
Semi-major axis
6,832.831 km
Eccentricity
0.00062
Inclination
48.4337°
RAAN
56.0968°
Arg. of periapsis
182.5155°
True anomaly
177.5783°
Mean anomaly
177.5753°
Eccentric anomaly
177.5768°
Mean motion
3.84275 °/min
Orbital period
93.68 mins
BSTAR
0.00075019
Loading maneuver chart data...
Computing Atmospheric mass density...
Loading historical data...
Loading historical data...
Loading historical data...
Loading historical data...
Loading historical data...
Loading historical data...
Loading historical data...
Other satellites on launch #2 in the year 1962 (1962-02-08 UTC)

Documentation

Showing up to 5 results
|